Hobart, OK

9:16 AM CDT on March 26, 2017 (GMT -0500)
Hobart Municipal

Weather History for KHBR - February, 2013

Change the Weather History Date:

Monday, February 18, 2013

  Actual Average Record
Temperature  
Mean Temperature 48 °F -  
Max Temperature 57 °F 53 °F 81 °F (2016)
Min Temperature 37 °F 32 °F 12 °F (2006)
Degree Days  
Heating Degree Days 17    
Moisture  
Dew Point 31 °F    
Average Humidity 54    
Maximum Humidity 93    
Minimum Humidity 28    
Precipitation  
Precipitation 0.00 in - - ()
Sea Level Pressure  
Sea Level Pressure 29.85 in    
Wind  
Wind Speed 20 mph (NNW)    
Max Wind Speed 32 mph    
Max Gust Speed 37 mph    
Visibility 10 miles    
Events      
Averages and records for this station are not official NWS values.
T = Trace of Precipitation, MM = Missing Value Source: NWS Daily Summary

Daily Weather History Graph

Daily Weather History Graph

Search for Another Location

Airport or City:

Trip Planner

Search our weather history database for the weather conditions in past years. The results will help you decide how hot, cold, wet, or windy it might be!

Date:

Astronomy

Feb. 18, 2013 Rise Set
Actual Time 7:18 AM CST 6:22 PM CST
Civil Twilight 6:52 AM CST 6:47 PM CST
Nautical Twilight 6:23 AM CST 7:17 PM CST
Astronomical Twilight 5:53 AM CST 7:46 PM CST
Moon 12:15 PM CST (2/18) 1:53 AM CST (2/18)
Length of Visible Light 11h 55m
Length of Day
11h 03m
First Quarter, 58% of the Moon is Illuminated
Feb 18
First Quarter
Feb 25
Full
Mar 4
Last Quarter
Mar 11
New
Mar 19
First Quarter

Hourly Weather History & Observations

Time (CST) Temp. Windchill Dew Point Humidity Pressure Visibility Wind Dir Wind Speed Gust Speed Precip Events Conditions
12:53 AM 52.0 °F - 34.0 °F 50% 29.66 in 10.0 mi South 24.2 mph - N/A   Clear
1:53 AM 50.0 °F - 36.0 °F 59% 29.65 in 10.0 mi South 21.9 mph - N/A   Clear
2:53 AM 50.0 °F - 39.9 °F 68% 29.62 in 10.0 mi South 23.0 mph - N/A   Clear
3:53 AM 51.1 °F - 43.0 °F 74% 29.61 in 10.0 mi South 21.9 mph - N/A   Clear
4:53 AM 50.0 °F - 44.1 °F 80% 29.60 in 10.0 mi South 17.3 mph - N/A   Clear
5:53 AM 48.0 °F - 44.1 °F 86% 29.61 in 10.0 mi SSW 17.3 mph - N/A   Clear
6:53 AM 45.0 °F 37.6 °F 43.0 °F 93% 29.62 in 10.0 mi SSW 17.3 mph - N/A   Clear
7:49 AM 44.6 °F 37.4 °F 35.6 °F 71% 29.69 in 10.0 mi NNW 16.1 mph 23.0 mph N/A   Clear
7:53 AM 44.6 °F 37.4 °F 35.6 °F 71% 29.69 in 10.0 mi NNW 16.1 mph - N/A   Clear
8:00 AM 44.6 °F 36.4 °F 33.8 °F 66% 29.70 in 10.0 mi NNW 20.7 mph - N/A   Clear
8:53 AM 46.9 °F - 30.9 °F 54% 29.74 in 10.0 mi North 26.5 mph 32.2 mph N/A   Clear
9:53 AM 50.0 °F - 32.0 °F 50% 29.79 in 10.0 mi North 26.5 mph 35.7 mph N/A   Clear
10:53 AM 52.0 °F - 30.0 °F 43% 29.84 in 10.0 mi North 32.2 mph 36.8 mph N/A   Clear
11:53 AM 54.0 °F - 30.0 °F 40% 29.88 in 10.0 mi North 28.8 mph 34.5 mph N/A   Clear
12:53 PM 55.9 °F - 28.9 °F 36% 29.89 in 10.0 mi North 27.6 mph 34.5 mph N/A   Clear
1:53 PM 57.0 °F - 26.1 °F 30% 29.90 in 10.0 mi North 25.3 mph 33.4 mph N/A   Clear
2:53 PM 57.9 °F - 25.0 °F 28% 29.92 in 10.0 mi North 25.3 mph 28.8 mph N/A   Clear
3:53 PM 57.9 °F - 25.0 °F 28% 29.94 in 10.0 mi North 20.7 mph 26.5 mph N/A   Clear
4:53 PM 55.9 °F - 23.0 °F 28% 29.96 in 10.0 mi North 21.9 mph 27.6 mph N/A   Clear
5:53 PM 53.1 °F - 24.1 °F 32% 30.00 in 10.0 mi NNW 15.0 mph - N/A   Clear
6:53 PM 44.1 °F 40.1 °F 26.1 °F 49% 30.06 in 10.0 mi NNW 6.9 mph - N/A   Clear
7:53 PM 41.0 °F 36.4 °F 24.1 °F 51% 30.10 in 10.0 mi NNW 6.9 mph - N/A   Clear
8:53 PM 41.0 °F 36.4 °F 24.1 °F 51% 30.12 in 10.0 mi North 6.9 mph - N/A   Clear
9:53 PM 39.0 °F 35.7 °F 24.1 °F 55% 30.15 in 10.0 mi NNW 4.6 mph - N/A   Clear
10:53 PM 39.0 °F 35.7 °F 23.0 °F 53% 30.17 in 10.0 mi NNW 4.6 mph - N/A   Clear
11:53 PM 37.0 °F 33.3 °F 23.0 °F 57% 30.15 in 10.0 mi NE 4.6 mph - N/A   Clear